EXPRESS AMU-7

Last updated on Mon Mar 09 2026 00:03:01 GMT+0000 (Coordinated Universal Time)

1 50001U 21123A 26067.17905308 .00000000 00000+0 00000+0 0 9997 2 50001 0.0170 162.6976 0000244 277.7467 294.9080 1.00269964 15525
UTC large
Height (km)
Speed (km/s)
/
Latitude / Longitude
Inclination (degrees)
Orbital Period (minutes)
Azimuth
Elevation
Range (km)
Doppler Factor

Next 0 passes for location: London (51.5072 / 0.1276)

Sorry there are no passes over London.